Probability
0 0 0 0 0 0 1 1 1 2 2 3 4 3 1 0 0 1 3 4 3 2 2 4 5 5 6 7 7 6 5 3 2 2 1 1 1 0 0 0 0 0 0 0
0 0 0 0 0 0 0 0 0 1 1 2 2 2 1 0 0 1 3 4 3 2 4 7 6 6 7 8 8 6 5 3 2 2 1 1 2 1 0 0 0 0 0 0
0 0 0 0 0 0 0 0 0 0 1 1 1 1 1 1 0 1 2 2 3 3 6 9 9 8 9 9 8 6 6 5 4 3 2 2 2 1 1 1 1 1 1 0
0 0 0 0 0 0 0 0 0 0 0 0 0 0 2 2 2 2 1 2 4 6 8 9 9 9 9 9 8 7 8 8 7 6 5 5 4 2 1 1 2 3 2 1
0 0 0 0 0 0 0 0 0 0 0 0 0 0 2 3 3 2 2 3 5 8 8 8 8 7 7 7 7 9 11 12 11 10 9 8 6 3 1 2 4 4 2 0
0 0 0 0 0 0 0 0 0 0 0 0 0 0 1 3 3 2 2 3 5 7 7 7 7 8 9 8 7 10 14 15 15 13 11 10 8 4 3 4 5 4 2 1
0 0 0 0 0 0 0 0 0 0 0 0 0 1 2 3 2 1 2 2 4 6 6 5 6 10 12 11 9 11 14 17 15 13 12 13 11 9 7 6 6 5 4 3
0 0 0 0 0 0 0 0 0 0 0 0 0 1 2 2 1 1 2 2 4 7 6 5 6 10 12 12 12 13 15 16 15 12 12 14 14 13 11 9 7 7 6 6
0 0 0 0 0 0 0 0 0 0 0 0 1 1 1 1 1 2 3 3 5 6 6 5 6 9 12 12 12 14 15 15 14 11 11 12 12 13 13 12 10 8 7 7
0 0 0 0 0 0 0 0 0 0 0 0 1 1 1 0 2 4 4 4 5 5 5 7 8 11 12 12 12 14 14 12 10 9 9 9 10 12 14 14 11 8 8 8
0 0 0 0 0 0 0 0 0 0 0 0 0 0 0 0 2 5 4 4 5 6 6 8 12 14 14 13 13 14 13 10 8 7 8 9 10 13 15 15 13 11 10 10
0 0 0 0 0 0 0 0 0 0 0 0 0 0 0 0 3 5 6 5 8 8 8 10 14 17 16 14 14 14 14 11 9 9 9 9 11 13 15 15 16 15 15 15
0 0 0 0 0 0 0 0 0 0 0 0 0 0 0 1 3 6 7 9 12 13 12 14 16 17 17 17 17 16 13 11 10 11 11 11 12 12 13 15 17 19 20 20
0 0 0 0 0 0 0 0 0 0 0 0 0 0 0 1 4 7 8 9 13 17 19 19 19 18 19 20 20 18 15 11 11 13 14 13 13 12 12 14 16 20 22 21
0 0 0 0 0 0 0 0 0 0 0 0 0 1 2 2 4 7 8 8 11 17 21 22 20 19 19 20 21 22 20 17 16 16 16 15 15 14 14 14 15 17 19 19
0 0 0 0 0 0 0 0 0 0 0 0 0 1 3 4 5 8 9 9 12 16 19 20 20 19 18 19 21 23 24 23 22 21 19 17 16 15 14 14 14 15 15 15
0 0 0 0 0 0 0 0 0 0 0 0 0 1 3 4 6 8 9 10 13 15 16 18 20 20 19 20 22 24 26 26 26 25 23 20 17 14 12 12 14 14 13 12
1 0 0 0 0 0 0 0 0 0 0 0 1 2 3 4 6 6 7 10 12 13 14 16 19 20 19 20 23 26 27 28 29 28 26 23 20 17 14 13 15 16 15 15
1 0 0 0 0 0 0 0 0 0 0 0 1 2 4 5 6 5 5 9 12 14 15 16 17 18 18 19 23 26 28 28 28 29 28 27 26 23 20 18 17 18 19 19
1 0 0 0 0 0 1 1 1 0 0 1 1 3 4 6 7 8 8 11 14 16 17 17 17 17 17 19 22 26 27 26 27 29 30 30 29 27 24 21 18 18 19 19
1 0 0 0 0 0 1 2 1 0 1 1 2 3 5 6 9 12 14 15 16 17 18 17 16 17 19 20 23 26 26 26 27 29 31 31 29 27 24 22 19 17 16 16
1 1 1 1 1 1 1 1 1 2 2 3 3 3 5 7 10 13 16 16 16 17 17 18 18 20 22 23 25 27 27 27 27 29 31 31 30 28 26 23 19 17 15 13
1 1 2 2 2 2 1 1 3 4 4 4 3 2 4 6 8 11 14 16 16 16 17 18 19 22 25 25 24 25 27 27 27 29 32 32 31 30 27 22 17 15 13 11
0 1 1 3 4 3 2 1 3 5 5 4 2 3 5 7 8 11 15 16 16 15 16 16 19 24 26 24 22 23 26 28 28 29 31 31 30 28 25 19 14 12 11 9
0 0 1 3 5 5 3 2 2 4 4 3 2 4 7 9 10 13 17 17 15 15 16 16 18 23 24 23 20 22 25 27 28 27 27 27 25 23 20 16 12 10 8 7
0 0 1 3 6 6 4 2 1 3 3 2 2 4 7 10 11 15 18 17 16 17 18 16 18 20 22 21 19 20 24 27 27 25 24 23 21 20 18 14 9 7 6 5
Wind_Speed
7 8 7 5 6 6 5 5 3 0 1 3 4 3 3 5 6 5 6 6 6 6 6 6 6 6 6 6 5 5 4 4 3 2 3 2 2 2 2 2 2 2 2 2
8 8 5 3 4 6 6 6 3 2 2 4 3 3 3 4 5 4 5 5 6 6 6 7 6 6 6 6 6 5 5 4 4 3 2 2 2 2 2 2 2 3 2 3
9 2 1 5 6 7 7 6 4 3 3 5 4 5 5 5 5 5 5 5 6 6 7 7 7 7 6 6 6 5 5 5 4 4 3 2 2 3 3 3 2 2 3 3
7 4 5 6 6 8 6 3 4 5 7 3 5 4 4 5 5 5 6 6 7 6 7 7 7 7 7 6 6 6 5 5 5 5 3 4 3 3 2 2 2 2 3 3
5 4 6 7 5 6 3 1 4 6 7 7 5 7 3 5 4 4 5 5 6 6 7 7 6 6 6 6 6 6 5 5 5 4 4 4 4 3 2 2 2 3 3 3
6 4 5 5 3 4 3 5 6 8 8 8 5 7 2 2 2 1 3 3 4 5 6 6 6 5 5 5 5 6 5 5 5 5 4 5 4 4 3 3 3 4 3 3
8 7 5 4 5 7 8 8 6 7 7 4 3 6 1 3 1 0 0 1 3 5 6 6 6 6 5 5 5 5 5 5 5 5 5 5 5 5 5 5 4 4 3 2
9 8 6 5 7 6 9 10 8 7 6 3 6 5 2 4 2 1 1 2 2 4 4 6 6 6 6 6 5 5 5 5 5 5 5 4 5 4 4 4 4 4 3 2
7 5 4 3 4 7 7 8 8 10 9 8 4 3 3 3 2 1 2 3 3 3 3 4 5 6 6 6 5 5 4 4 4 4 4 4 4 4 4 4 4 3 3 2
7 7 5 5 7 5 7 6 6 9 8 9 6 6 2 3 2 3 2 2 3 3 3 3 4 4 5 5 5 5 4 4 3 3 3 3 4 4 4 3 3 3 3 2
9 9 6 7 7 5 6 7 7 8 8 9 8 1 4 1 2 2 2 2 2 2 2 3 3 3 4 4 5 5 4 4 3 3 3 3 3 4 4 3 3 3 3 3
6 8 7 6 3 4 6 6 8 8 7 8 9 1 4 1 1 2 2 2 2 2 2 2 2 3 3 4 4 5 4 4 3 3 3 3 3 3 4 3 3 3 3 3
4 8 9 9 9 7 7 7 8 9 8 8 10 2 5 2 2 1 1 1 1 1 2 2 2 2 2 2 3 4 4 4 4 3 3 3 3 3 3 3 3 3 3 3
6 9 9 9 4 3 6 7 8 11 9 9 8 6 2 2 2 2 2 1 1 1 1 1 1 1 1 2 2 3 3 3 4 4 4 3 3 3 3 3 3 3 3 3
7 9 9 8 7 7 7 7 8 10 11 11 8 7 4 3 3 3 3 2 2 1 1 1 1 0 1 2 2 2 2 3 3 4 4 3 3 2 2 2 2 3 3 3
6 8 8 10 9 9 10 9 10 10 10 11 10 8 3 2 2 3 3 3 3 2 2 1 1 1 1 2 2 2 3 3 3 4 3 2 2 2 2 2 2 2 2 3
6 7 9 10 8 11 12 9 10 9 8 9 10 6 3 4 4 4 4 4 3 2 2 2 1 1 1 2 2 3 3 3 3 3 3 3 2 2 2 2 2 2 3 3
7 8 7 8 9 13 5 3 7 9 9 8 7 6 5 4 4 4 4 3 2 2 2 2 2 1 1 1 1 2 2 3 3 3 3 2 2 2 3 3 2 3 3 3
8 8 8 8 11 11 7 4 6 8 9 6 6 5 3 2 3 4 3 2 2 2 2 1 1 1 1 1 1 2 2 3 3 3 3 3 3 3 3 3 2 2 3 3
7 8 9 10 12 12 4 2 3 8 9 3 4 5 5 5 6 2 1 2 2 1 1 1 1 0 1 1 2 2 2 2 2 2 3 3 3 3 3 3 2 2 2 3
9 9 11 12 12 8 0 2 4 9 4 2 3 4 6 6 5 2 0 1 1 1 1 1 1 1 1 1 2 2 2 2 1 1 2 2 3 3 3 3 2 2 2 2
9 8 9 9 12 6 3 3 4 5 5 4 4 4 5 4 1 1 1 1 2 2 2 1 1 1 1 2 2 2 2 2 1 2 2 2 3 3 2 2 2 2 3 3
8 6 5 6 4 2 1 2 3 5 5 4 4 4 4 4 4 3 3 3 3 2 2 2 2 2 2 2 2 2 2 1 2 2 2 2 2 2 1 2 2 2 3 3
5 3 6 6 3 1 2 3 4 4 5 5 5 4 5 5 5 4 3 3 3 3 3 3 3 3 3 2 2 2 2 2 2 2 2 2 2 2 2 2 2 2 2 2
3 4 6 8 4 4 3 4 4 4 4 4 4 4 5 5 5 4 4 4 4 4 4 4 3 3 3 3 3 3 2 3 3 3 3 3 3 2 2 2 1 2 1 1
5 6 7 6 3 6 5 5 5 5 5 4 4 5 5 5 5 5 4 4 4 4 4 4 4 4 4 4 3 3 3 3 4 4 4 3 3 2 2 2 1 1 2 2
Wind_Direction
201 226 225 223 243 286 287 287 288 304 150 242 241 225 182 181 195 191 185 182 183 187 178 176 181 178 176 175 175 181 188 177 184 185 197 197 199 209 205 199 192 221 249 259
211 229 248 248 238 243 251 259 236 190 195 258 243 232 185 184 200 201 195 188 191 187 178 178 184 182 182 177 179 182 187 185 195 190 207 213 216 222 215 232 200 235 246 257
237 259 196 225 221 235 244 255 256 250 228 220 244 205 177 177 190 199 202 198 197 196 189 183 187 190 188 185 187 188 189 186 196 199 203 193 197 224 214 214 211 233 246 254
239 240 223 230 232 246 250 242 240 231 242 224 252 270 176 180 187 197 201 201 203 197 195 190 191 193 194 190 185 186 185 186 191 200 211 210 217 231 239 243 228 220 230 247
218 210 226 243 255 259 277 231 226 240 258 261 234 268 171 178 201 195 192 200 204 199 195 190 191 189 192 188 183 181 181 186 187 198 202 219 229 237 238 240 229 245 235 246
241 220 253 259 250 227 193 205 213 227 243 249 248 263 251 165 216 179 159 177 193 195 189 187 183 175 179 179 181 178 177 187 188 195 203 216 229 242 251 244 239 236 233 235
215 205 201 215 208 190 220 236 239 231 229 239 181 250 289 74 60 5 117 140 173 179 182 179 175 171 174 179 182 179 177 188 194 199 208 214 226 232 235 242 234 249 248 238
232 216 194 211 238 228 229 252 270 281 282 251 188 240 107 101 88 85 98 109 124 150 167 172 175 175 180 184 183 179 177 187 197 206 215 221 227 234 236 236 251 242 254 258
255 228 165 204 244 252 237 245 275 278 272 272 239 207 174 153 165 143 110 111 121 137 151 169 173 178 182 185 186 184 179 187 201 211 212 217 227 241 245 237 240 246 251 248
261 255 207 191 206 220 269 265 252 259 269 270 251 238 229 165 174 153 135 121 117 128 145 157 169 175 181 182 178 177 177 185 195 207 219 203 216 225 236 244 246 258 261 268
252 250 224 210 229 230 214 227 252 261 271 277 276 280 63 136 161 184 160 138 131 138 140 142 149 166 181 177 171 173 176 183 187 198 216 222 213 218 220 228 238 241 248 252
235 253 249 230 207 264 248 246 244 255 256 265 280 298 92 110 157 163 146 132 130 134 130 121 128 153 169 172 172 174 182 190 196 194 197 212 219 219 223 223 230 231 236 243
223 247 243 216 193 198 227 237 250 263 259 259 266 235 114 123 152 162 169 149 149 155 134 122 127 144 161 171 179 187 190 195 198 196 199 206 217 221 232 236 235 228 231 242
246 250 259 272 286 238 225 231 242 255 259 261 266 272 226 233 229 220 216 203 196 177 162 161 134 131 160 180 192 209 208 199 199 197 200 206 221 226 233 237 238 235 233 239
244 244 245 259 264 258 255 251 242 249 267 278 284 280 279 269 255 234 212 203 216 202 204 216 244 169 193 192 200 215 218 207 203 200 201 208 221 227 232 232 233 233 230 232
240 251 244 242 244 248 251 252 249 249 258 264 269 272 290 271 240 222 209 206 221 224 232 243 266 259 219 198 204 212 215 205 204 206 203 194 212 232 237 239 237 240 244 244
225 235 246 246 238 246 242 243 249 251 250 261 269 282 275 247 235 239 224 219 228 230 241 248 251 253 259 229 208 217 213 207 200 198 195 186 193 232 240 239 239 247 247 243
231 236 244 251 239 247 250 244 257 262 260 262 273 278 272 268 256 249 227 229 235 237 244 249 248 254 254 264 206 201 194 195 193 186 189 199 198 233 246 235 232 245 249 254
233 231 246 247 245 248 231 222 243 256 262 260 266 268 267 277 250 225 213 251 252 242 245 252 255 263 268 270 210 182 193 194 194 191 195 201 205 222 239 237 229 244 250 253
206 225 243 245 255 256 249 197 242 253 248 239 254 247 240 240 254 243 190 235 236 237 231 232 249 267 213 226 202 195 199 206 213 209 208 205 203 217 230 234 233 237 244 249
203 215 234 246 253 255 284 123 225 245 298 347 269 243 234 249 289 352 180 197 197 207 211 238 253 261 238 213 202 207 212 226 245 225 203 190 199 207 212 220 229 239 249 257
232 227 228 243 250 245 108 182 254 324 342 312 283 257 253 268 268 205 175 185 192 201 202 227 259 279 254 216 205 210 220 236 231 209 198 195 213 223 195 199 221 236 249 244
242 268 263 254 271 24 47 289 325 321 308 302 285 270 251 242 235 223 213 214 214 217 217 222 233 246 234 216 211 226 234 237 226 219 212 209 215 215 210 216 224 222 223 246
213 275 264 257 235 248 263 284 290 295 292 292 282 267 247 244 236 229 226 220 218 221 221 221 226 227 223 220 226 235 224 222 215 219 226 215 212 205 201 238 240 250 249 257
270 232 243 248 258 254 246 288 295 292 293 289 276 261 251 240 233 228 227 224 222 223 222 225 233 234 227 229 233 232 221 220 225 225 230 233 224 212 220 227 258 255 271 290
242 248 254 265 268 274 279 289 293 280 276 275 272 265 252 239 230 228 228 225 224 224 224 226 230 234 223 223 229 229 223 225 227 226 230 237 231 221 228 219 214 165 237 189